Kincheloe, MI

2:14 AM EST on January 20, 2017 (GMT -0500)
Chippewa County International

Weather History for KCIU - November, 2013

Change the Weather History Date:

Tuesday, November 19, 2013

  Actual Average Record
Temperature  
Mean Temperature 26 °F -  
Max Temperature 32 °F 38 °F 53 °F (1991)
Min Temperature 21 °F 24 °F 3 °F (2014)
Degree Days  
Heating Degree Days 38    
Moisture  
Dew Point 21 °F    
Average Humidity 80    
Maximum Humidity 100    
Minimum Humidity 64    
Precipitation  
Precipitation 0.00 in - - ()
Sea Level Pressure  
Sea Level Pressure 30.26 in    
Wind  
Wind Speed 12 mph (NW)    
Max Wind Speed 22 mph    
Max Gust Speed 31 mph    
Visibility 10 miles    
Events      
Averages and records for this station are not official NWS values.
T = Trace of Precipitation, MM = Missing Value Source: NWS Daily Summary

Daily Weather History Graph

Daily Weather History Graph

Search for Another Location

Airport or City:

Trip Planner

Search our weather history database for the weather conditions in past years. The results will help you decide how hot, cold, wet, or windy it might be!

Date:

Astronomy

Nov. 19, 2013 Rise Set
Actual Time 7:44 AM EST 5:01 PM EST
Civil Twilight 7:11 AM EST 5:34 PM EST
Nautical Twilight 6:35 AM EST 6:11 PM EST
Astronomical Twilight 5:59 AM EST 6:46 PM EST
Moon 6:50 PM EST (11/19) 9:24 AM EST (11/19)
Length of Visible Light 10h 22m
Length of Day
9h 16m
Waning Gibbous, 96% of the Moon is Illuminated
Nov 19
Waning Gibbous
Nov 25
Last Quarter
Dec 2
New
Dec 9
First Quarter
Dec 17
Full

Hourly Weather History & Observations

Time (EST) Temp. Windchill Dew Point Humidity Pressure Visibility Wind Dir Wind Speed Gust Speed Precip Events Conditions
12:15 AM 28.4 °F 15.1 °F 23.0 °F 80% 30.04 in 10.0 mi WNW 20.7 mph 29.9 mph N/A   Overcast
12:35 AM 28.4 °F 16.6 °F 23.0 °F 80% 30.05 in 10.0 mi WNW 16.1 mph 24.2 mph N/A   Overcast
12:55 AM 28.4 °F 15.8 °F 21.2 °F 74% 30.05 in 10.0 mi NW 18.4 mph 29.9 mph N/A   Overcast
1:15 AM 28.4 °F 16.2 °F 21.2 °F 74% 30.06 in 10.0 mi NW 17.3 mph 25.3 mph N/A   Overcast
1:35 AM 28.4 °F 16.6 °F 23.0 °F 80% 30.08 in 10.0 mi NW 16.1 mph 23.0 mph N/A   Overcast
1:55 AM 28.4 °F 14.7 °F 21.2 °F 74% 30.08 in 10.0 mi WNW 21.9 mph 31.1 mph N/A   Overcast
2:15 AM 28.4 °F 16.6 °F 21.2 °F 74% 30.10 in 10.0 mi NW 16.1 mph 21.9 mph N/A   Overcast
2:35 AM 28.4 °F 18.0 °F 21.2 °F 74% 30.11 in 10.0 mi NW 12.7 mph 21.9 mph N/A   Overcast
2:55 AM 28.4 °F 15.8 °F 21.2 °F 74% 30.12 in 10.0 mi WNW 18.4 mph 25.3 mph N/A   Overcast
3:15 AM 26.6 °F 15.7 °F 21.2 °F 80% 30.13 in 10.0 mi NW 12.7 mph 20.7 mph N/A   Overcast
3:35 AM 26.6 °F 14.3 °F 21.2 °F 80% 30.12 in 10.0 mi NNW 16.1 mph 20.7 mph N/A   Overcast
3:55 AM 26.6 °F 15.7 °F 24.8 °F 93% 30.14 in 10.0 mi NW 12.7 mph 18.4 mph N/A   Overcast
4:15 AM 26.6 °F 14.7 °F 24.8 °F 93% 30.14 in 10.0 mi NW 15.0 mph - N/A   Overcast
4:35 AM 26.6 °F 15.2 °F 23.0 °F 86% 30.16 in 10.0 mi NW 13.8 mph 20.7 mph N/A   Overcast
4:55 AM 26.6 °F 15.7 °F 23.0 °F 86% 30.17 in 10.0 mi NNW 12.7 mph - N/A   Overcast
5:15 AM 26.6 °F 14.7 °F 23.0 °F 86% 30.18 in 10.0 mi WNW 15.0 mph 20.7 mph N/A   Overcast
5:35 AM 26.6 °F 16.2 °F 23.0 °F 86% 30.19 in 10.0 mi NW 11.5 mph - N/A   Overcast
5:55 AM 26.6 °F 14.3 °F 23.0 °F 86% 30.20 in 10.0 mi NNW 16.1 mph 20.7 mph N/A   Overcast
6:15 AM 26.6 °F 15.2 °F 21.2 °F 80% 30.21 in 10.0 mi NNW 13.8 mph 20.7 mph N/A   Overcast
6:35 AM 26.6 °F 15.2 °F 21.2 °F 80% 30.22 in 10.0 mi NNW 13.8 mph 19.6 mph N/A   Overcast
6:55 AM 26.6 °F 15.7 °F 21.2 °F 80% 30.23 in 10.0 mi NW 12.7 mph - N/A   Overcast
7:15 AM 26.6 °F 16.8 °F 21.2 °F 80% 30.24 in 10.0 mi NW 10.4 mph - N/A   Overcast
7:35 AM 26.6 °F 16.2 °F 21.2 °F 80% 30.25 in 10.0 mi NW 11.5 mph 21.9 mph N/A   Overcast
7:55 AM 26.6 °F 15.7 °F 21.2 °F 80% 30.26 in 10.0 mi NW 12.7 mph 16.1 mph N/A   Overcast
8:15 AM 26.6 °F 15.7 °F 21.2 °F 80% 30.26 in 10.0 mi NW 12.7 mph - N/A   Overcast
8:35 AM 26.6 °F 17.5 °F 21.2 °F 80% 30.27 in 10.0 mi NW 9.2 mph - N/A   Overcast
8:55 AM 26.6 °F 15.2 °F 21.2 °F 80% 30.27 in 10.0 mi NNW 13.8 mph 18.4 mph N/A   Overcast
9:15 AM 26.6 °F 16.8 °F 21.2 °F 80% 30.28 in 10.0 mi NW 10.4 mph - N/A   Overcast
9:35 AM 26.6 °F 16.2 °F 21.2 °F 80% 30.29 in 10.0 mi NW 11.5 mph - N/A   Overcast
9:55 AM 26.6 °F 16.2 °F 21.2 °F 80% 30.30 in 10.0 mi WNW 11.5 mph - N/A   Overcast
10:15 AM 26.6 °F 16.8 °F 21.2 °F 80% 30.32 in 10.0 mi NW 10.4 mph 17.3 mph N/A   Overcast
10:35 AM 28.4 °F 19.1 °F 21.2 °F 74% 30.32 in 10.0 mi WNW 10.4 mph - N/A   Overcast
10:55 AM 28.4 °F 21.2 °F 21.2 °F 74% 30.32 in 10.0 mi NE 6.9 mph - N/A   Overcast
11:15 AM 28.4 °F - 21.2 °F 74% 30.32 in 10.0 mi Calm Calm - N/A   Overcast
11:35 AM 28.4 °F 22.2 °F 23.0 °F 80% 30.32 in 10.0 mi NNE 5.8 mph - N/A   Overcast
11:55 AM 28.4 °F - 23.0 °F 80% 30.32 in 10.0 mi Calm Calm - N/A   Overcast
12:15 PM 30.2 °F 22.6 °F 21.2 °F 69% 30.32 in 10.0 mi NW 8.1 mph - N/A   Overcast
12:35 PM 30.2 °F 22.6 °F 21.2 °F 69% 30.32 in 10.0 mi NW 8.1 mph - N/A   Overcast
12:55 PM 30.2 °F 23.4 °F 21.2 °F 69% 30.33 in 10.0 mi WNW 6.9 mph - N/A   Overcast
1:15 PM 30.2 °F 21.9 °F 21.2 °F 69% 30.33 in 10.0 mi WNW 9.2 mph - N/A   Overcast
1:35 PM 30.2 °F 24.3 °F 21.2 °F 69% 30.33 in 10.0 mi West 5.8 mph - N/A   Overcast
1:55 PM 30.2 °F 21.3 °F 21.2 °F 69% 30.33 in 10.0 mi NNW 10.4 mph - N/A   Overcast
2:15 PM 30.2 °F 26.7 °F 21.2 °F 69% 30.32 in 10.0 mi NW 3.5 mph - N/A   Mostly Cloudy
2:35 PM 32.0 °F 25.6 °F 21.2 °F 64% 30.32 in 10.0 mi NW 6.9 mph - N/A   Mostly Cloudy
2:55 PM 30.2 °F 25.4 °F 21.2 °F 69% 30.31 in 10.0 mi North 4.6 mph - N/A   Partly Cloudy
3:15 PM 30.2 °F 26.7 °F 21.2 °F 69% 30.32 in 10.0 mi WNW 3.5 mph - N/A   Clear
3:35 PM 30.2 °F 26.7 °F 21.2 °F 69% 30.33 in 10.0 mi West 3.5 mph - N/A   Clear
3:55 PM 30.2 °F - 21.2 °F 69% 30.32 in 10.0 mi Calm Calm - N/A   Clear
4:15 PM 32.0 °F - 21.2 °F 64% 30.33 in 10.0 mi Calm Calm - N/A   Clear
4:35 PM 28.4 °F - 21.2 °F 74% 30.34 in 10.0 mi Calm Calm - N/A   Clear
4:55 PM 26.6 °F - 19.4 °F 74% 30.34 in 10.0 mi Calm Calm - N/A   Clear
5:15 PM 26.6 °F - 17.6 °F 69% 30.34 in 10.0 mi Calm Calm - N/A   Clear
5:35 PM 24.8 °F - 17.6 °F 74% 30.34 in 10.0 mi Calm Calm - N/A   Clear
5:55 PM 24.8 °F - 17.6 °F 74% 30.34 in 10.0 mi Calm Calm - N/A   Clear
6:15 PM 24.8 °F 17.9 °F 19.4 °F 80% 30.34 in 10.0 mi East 5.8 mph - N/A   Clear
6:35 PM 24.8 °F 17.9 °F 21.2 °F 86% 30.35 in 10.0 mi East 5.8 mph - N/A   Clear
6:55 PM 24.8 °F 16.9 °F 21.2 °F 86% 30.34 in 10.0 mi East 6.9 mph - N/A   Clear
7:15 PM 24.8 °F 15.3 °F 21.2 °F 86% 30.33 in 10.0 mi East 9.2 mph - N/A   Clear
7:35 PM 24.8 °F 16.1 °F 21.2 °F 86% 30.34 in 10.0 mi ESE 8.1 mph - N/A   Clear
7:55 PM 24.8 °F 17.9 °F 21.2 °F 86% 30.34 in 10.0 mi SE 5.8 mph - N/A   Clear
8:15 PM 24.8 °F 17.9 °F 21.2 °F 86% 30.34 in 10.0 mi SE 5.8 mph - N/A   Clear
8:35 PM 23.0 °F 14.7 °F 19.4 °F 86% 30.33 in 10.0 mi ESE 6.9 mph - N/A   Clear
8:55 PM 21.2 °F 12.6 °F 19.4 °F 93% 30.33 in 10.0 mi SE 6.9 mph - N/A   Clear
9:15 PM 21.2 °F 11.7 °F 19.4 °F 93% 30.33 in 10.0 mi SE 8.1 mph - N/A   Clear
9:35 PM 21.2 °F 11.7 °F 21.2 °F 100% 30.33 in 10.0 mi SE 8.1 mph - N/A   Clear
9:55 PM 23.0 °F 14.7 °F 21.2 °F 93% 30.33 in 10.0 mi SE 6.9 mph - N/A   Clear
10:15 PM 21.2 °F 11.7 °F 21.2 °F 100% 30.33 in 10.0 mi ESE 8.1 mph - N/A   Clear
10:35 PM 24.8 °F 15.3 °F 23.0 °F 93% 30.32 in 10.0 mi ESE 9.2 mph - N/A   Clear
10:55 PM 24.8 °F 15.3 °F 24.8 °F 100% 30.32 in 10.0 mi ESE 9.2 mph - N/A   Clear
11:15 PM 24.8 °F 14.6 °F 24.8 °F 100% 30.32 in 10.0 mi SE 10.4 mph - N/A   Clear
11:35 PM 24.8 °F 15.3 °F 24.8 °F 100% 30.33 in 10.0 mi SE 9.2 mph - N/A   Clear
11:55 PM 24.8 °F 16.1 °F 23.0 °F 93% 30.33 in 10.0 mi SE 8.1 mph - N/A   Clear